Alvin, SC

7:55 AM EST on February 13, 2016 (GMT -0500)
Macedonia | | Change Station
CLOSE
Current Station
Personal Weather Station
Location: Bonneau, SC
Elevation: 46 ft
Nearby Weather Stations
Active Advisory: Flood Warning

Elev 46 ft 33.29 °N, 79.89 °W | Updated 15 seconds ago

Clear
Clear
28.8 °F
Feels Like 29 °F
N
0.0
Wind Variable Wind from SE
Gusts 0.0 mph

Today
High -- | Low -- °F
--% Chance of Precip.
Yesterday
High -- | Low -- °F
Precip. -- in
Pressure 30.23 in
Visibility 7.0 miles
Clouds Clear
Windchill 29 °F
Dew Point 29 °F
Humidity 99%
Rainfall 0.00 in
Snow Depth Not available.
7:05 AM 6:01 PM
Waxing Crescent, 30% visible
METAR KMKS 131235Z AUTO 35005KT 7SM CLR 00/M04 A3023 RMK AO2
Pressure 30.23 in
Visibility 7.0 miles
Clouds Clear
Windchill 29 °F
Dew Point 29 °F
Humidity 99%
Rainfall 0.00 in
Snow Depth Not available.
7:05 AM 6:01 PM
Waxing Crescent, 30% visible
METAR KMKS 131235Z AUTO 35005KT 7SM CLR 00/M04 A3023 RMK AO2

10-Day Weather Forecast

Almanac

Astronomy

Feb. 13, 2016 Rise Set
Actual Time
Civil Twilight
Nautical Twilight
Astronomical Twilight
Moon
Length of Visible Light
Length of Day
Tomorrow will be .
, % of the Moon is Illuminated

Today's Extremes

State Highs State Lows

Community

WunderPhotos

Upload Photos

1,892,543 photos uploaded!

WunderBlog® & News

Nearby

Air Quality

  Air Quality AQ Index Pollutant
Not available.

Snow Depth

Station Depth Elevation

Earthquake Activity

City Distance Mag. Time & Date
Minimum magnitude displayed is 2.5.

Coastal Water Temperatures

Place Temperature

Stations

Nearby Weather Stations

Station Location Temp. Windchill Dew Point Humidity Wind Precip. Elev Updated Type
                   

Watches & Warnings

Flood Warning
Issued: 8:01 PM EST Feb. 12, 2016 – National Weather Service

The Flood Warning continues for
the Santee river near Jamestown.
* At 7 PM Friday the stage was 13.6 feet.
* Flood stage is 10.0 feet.
* Minor flooding is occurring.
* Forecast, the river will continue to fall.
* At 12.0 feet, several dirt logging roads are impassable.


Lat... Lon 3347 8002 3354 7998 3325 7937 3321 7938
          3320 7951 3329 7976